Regional Weather Roundup
Issued by NWS

Home | Current Version | Previous Version | Graphics & Text | Print | Product List | Glossary On
Versions: 1 2 3 4 5 6 7 8 9 10 11 12 13 14 15 16 17 18 19 20 21 22 23 24 25 26 27 28 29 30 31 32 33 34 35 36 37 38 39 40 41 42 43 44 45 46 47 48 49 50
712
ASUS45 KSLC 082110
RWRUT

UTAH REGIONAL WEATHER ROUNDUP
NATIONAL WEATHER SERVICE SALT LAKE CITY UT
200 PM MST THU DEC 08 2016

UTZ001>011-023>025-082200-

NORTHERN UTAH

CITY           SKY/WX    TMP DP  RH WIND       PRES   REMARKS
BRIGHAM CITY     N/A     26   9  49 CALM      30.21F
DUGWAY         PTSUNNY   29  15  57 E5        30.17  WCI  23
HILL AFB       LGT SNOW  21  16  79 SE9       30.16F WCI  11
LOGAN          CLOUDY    21  10  62 CALM      30.20F
OGDEN          LGT SNOW  24  18  77 SE3       30.18F
SALT LAKE CITY FLURRIES  29  13  51 NW12      30.18F WCI  19
WENDOVER       CLOUDY    23  18  80 E6        30.18F WCI  16
HEBER CITY     LGT SNOW  23  16  74 CALM      30.15F

$$

UTZ011>015-024>027-082200-

CENTRAL/NORTHEAST UTAH

CITY           SKY/WX    TMP DP  RH WIND       PRES   REMARKS
PROVO AIRPORT  CLOUDY    29  16  58 W7        30.19F WCI  22
MOAB/CANYONLAN CLOUDY    33   4  29 VRB3      30.26F
DELTA          CLOUDY    28   9  43 CALM      30.16F
PRICE          PTSUNNY   25   0  33 CALM      30.23F
RICHFIELD      CLOUDY    36   9  32 NE2       30.17F
ROOSEVELT      CLOUDY    27   3  36 CALM      30.28F
VERNAL         CLOUDY    24   4  42 SE6       30.25F WCI  17

$$

UTZ013>016-019>022-027-082200-

SOUTHERN UTAH

CITY           SKY/WX    TMP DP  RH WIND       PRES   REMARKS
BRYCE CANYON     N/A     30   7  37 SE9       30.20F WCI  22
CEDAR CITY     CLOUDY    41  16  36 SW13      30.16S
MILFORD        CLOUDY    36   8  31 S29       30.15F WCI  23
ST GEORGE        N/A     46  16  29 NW3       30.25F
HANKSVILLE       N/A     36   3  25 CALM      30.29F
KANAB            N/A     46  19  34 CALM      30.26F
BLANDING       PTSUNNY   34   4  28 SE5       30.35S WCI  29

$$

REGIONAL REPORTS     COLORADO/ARIZONA

CITY           SKY/WX    TMP DP  RH WIND       PRES   REMARKS
CRAIG, CO      CLOUDY    21   3  45 E8        30.21F WCI  11
GRAND JUNCTION CLOUDY    29   6  38 CALM      30.28F
RIFLE, CO      CLOUDY    23   5  46 CALM      30.27F
MONTROSE, CO   CLOUDY    28   7  41 W3        30.28F
CORTEZ, CO     CLOUDY    38  10  31 CALM      30.28S
COLORADO CITY    N/A     50  21  32 SE8       30.24F
PAGE, AZ         N/A     42   3  19 N7        30.26F
GRAND CANYON     N/A     45  21  38 SW8       30.24F
KINGMAN, AZ      N/A     55  17  22 W9        30.21F
FLAGSTAFF, AZ    N/A     44  23  43 S13       30.24F

$$

REGIONAL REPORTS    NEVADA/IDAHO/WYOMING

CITY           SKY/WX    TMP DP  RH WIND       PRES   REMARKS
LAS VEGAS, NV    N/A     52   6  15 E6        30.23F
ELY, NY        CLOUDY    38  14  37 E8        30.10F WCI  32
ELKO, NV       MIX PCPN  27  21  78 E6        30.06F WCI  20
POCATELLO, ID  LGT SNOW  17  10  74 NE9       30.18F WCI   6
FORT BRIDGER,  CLOUDY     6   1  77 CALM      30.18S
EVANSTON, WY   LGT SNOW  10   2  69 E12       30.10F WCI  -5
ROCK SPRINGS,  CLOUDY     9   1  70 CALM      30.15F

$$




USA.gov is the U.S. government's official web portal to all federal, state and local government web resources and services.